Location: Kawakawa
(35.3830°S, 174.0670°E)
Time: 20:34:47
(UTC+13:00)

Altair - Pass Details

Date: 10 December 2019
Orbit: 1502 x 1682 km, 47.2° (Epoch: 24 January)

Event Time Altitude Azimuth Distance (km) Brightness Sun altitude
Rises 07:09:00 0° 14° (NNE) 4,698 10.0 11.6°
Reaches altitude 10° 07:15:43 10° 48° (NE) 3,777 10.0 12.9°
Maximum altitude 07:17:41 11° 60° (ENE) 3,735 10.3 13.3°
Drops below altitude 10° 07:19:40 10° 72° (ENE) 3,815 10.6 13.7°
Sets 07:26:33 0° 105° (ESE) 4,864 12.1 15.0°
